Preview of NWS' New Version of Forecast
This preview is not operational and should not be used for support decisions.

Regional Weather Roundup (RWR)

Issued by National Weather Service (NWS)

                            
000
ASUS42 KTBW 190416
RWRFL 
FLORIDA REGIONAL WEATHER ROUNDUP
NATIONAL WEATHER SERVICE TAMPA BAY RUSKIN FL
1200 AM EDT FRI APR 19 2019

NOTE: "FAIR" INDICATES FEW OR NO CLOUDS BELOW 12,000 FEET WITH NO
SIGNIFICANT WEATHER AND/OR OBSTRUCTIONS TO VISIBILITY.

FLZ001>010-012>015-112-114-115-190500-
PANHANDLE FLORIDA
  
CITY           SKY/WX    TMP DP  RH WIND       PRES   REMARKS
PENSACOLA      MOCLDY    75  75 100 S23G33    29.67S                  
PENSACOLA NAS  CLOUDY    74  73  97 S20       29.68R FOG              
MILTON NAS     CLOUDY    74  73  97 S20       29.65                   
CRESTVIEW      LGT RAIN  74  71  91 S10G21    29.70F                  
DUKE FIELD     LGT RAIN  73  73 100 S23G33    29.68F                  
VALPARAISO     CLOUDY    73  73 100 SE21G30   29.68F                  
MARY ESTHER    LGT RAIN  72  70  94 SE13      29.65                   
PANAMA CITY    CLOUDY    75  71  87 SE18G25   29.77F                  
TYNDALL AFB    CLOUDY    73  71  93 S16       29.79F FOG              
APALACHICOLA   CLOUDY    73  71  93 S16G25    29.79F                  

STATION/POSITION SKY/WX   TEMP    WIND        PRES    WAVE   SWELL
                          AIR SEA DIR/SP/G            HT/PER HT/PER
                          (F)     (DEG/KT/KT) (MB)    (FT/S) (FT/S)
30.1N   87.6W                                 1005.3R   7/ 6
29.2N   88.2W                     170/ 23/ 29 1005.5
PANAMA CITY BEAC           72 72  150/ 20/ 23 1008.3F
TOWER C          NOT AVBL

$$
FLZ011-016>038-118-127-128-134-139-239-190500-
NORTH FLORIDA
  
CITY           SKY/WX    TMP DP  RH WIND       PRES   REMARKS
MARIANNA       MOCLDY    75  70  84 S13G21    29.77F                  
TALLAHASSEE    FAIR      74  71  91 S7        29.82F                  
PERRY          FAIR      74  71  90 S5        29.86F                  
LIVE OAK       CLEAR     70  68  94 CALM      29.87F                  
CROSS CITY     MOCLDY    68  67  98 SE3       29.88F                  
LAKE CITY      FAIR      63  59  88 CALM      29.89F                  
GAINESVILLE    CLOUDY    73  65  75 SE6       29.93S                  
PALATKA        CLOUDY    72  70  94 CALM      29.92F                  
MAYPORT NAS    CLOUDY    75  72  90 S14G22    29.90F                  
JACKSONVILLE   CLOUDY    74  70  87 SE9       29.89F                  
JAX NAS        MOCLDY    77  69  76 SE8       29.90F                  
JAX CECIL      FAIR      73  70  88 CALM      29.89F                  
FERNANDINA BEA CLOUDY    74  72  92 S14       29.91F                  
ST AUGUSTINE   HVY RAIN  75  73  94 S7G24     29.91F FOG              
PALM COAST     CLOUDY    76  70  80 S8G18     29.92S                  

STATION/POSITION SKY/WX   TEMP    WIND        PRES    WAVE   SWELL
                          AIR SEA DIR/SP/G            HT/PER HT/PER
                          (F)     (DEG/KT/KT) (MB)    (FT/S) (FT/S)
SHELL POINT      NOT AVBL
KEATON BEACH               74     170/ 12/ 14 1010.9F
CEDAR KEY                  76     220/  9/ 14 1012.2F
FERNANDINA                 76 70  160/  9/ 17 1013.5F
30.7N   81.3W                 68                N/A     4/ 5
MAYPORT                    75 70  170/ 10/ 15 1013.0F
31.4N   80.9W              71 68  160/ 14/ 16 1012.7F   3/ 7   2/ 9
ST AUGUSTINE               75 74  150/ 22/ 24 1012.4F

$$
FLZ040-043>046-052-053-057-058-063-144-190500-
INTERIOR CENTRAL FLORIDA
  
CITY           SKY/WX    TMP DP  RH WIND       PRES   REMARKS
OCALA          MOCLDY    74  67  78 CALM      29.92F                  
LEESBURG       CLOUDY    72  70  93 S3        29.93F                  
SANFORD        CLOUDY    76  73  91 SE9       29.94S                  
ORLANDO EXEC   MOCLDY    75  73  93 SE9       29.93F                  
ORLANDO INTL   FAIR      75  70  84 S10       29.94F                  
KISSIMMEE      FAIR      76  71  85 S10       29.95S                  
WINTER HAVEN   FAIR      78  69  73 S13       29.95S                  
LAKELAND       CLOUDY    73  72  94 S5        29.95S                  
BARTOW         FAIR      75  70  83 S9        29.94R                  
SEBRING        FAIR      76  70  84 SE8       29.96R                  
OKEECHOBEE     FAIR      77  72  83 SE13G18   29.95F                  

$$
FLZ041-047-054-059-064-141-147-190500-
EAST CENTRAL FLORIDA
  
CITY           SKY/WX    TMP DP  RH WIND       PRES   REMARKS
DAYTONA BEACH  CLOUDY    77  73  87 S14       29.93S                  
DELAND         CLOUDY    77  70  78 SE14      29.92F                  
JFK SPACE CTR  MOCLDY    77  73  87 S10G20    29.94F                  
CAPE CANAVERAL FAIR      77  70  81 S14       29.94S                  
PATRICK AFB    FAIR      77  77 100 SE13      29.96S                  
MELBOURNE      FAIR      77  71  82 S8        29.96S                  
VERO BEACH     MOCLDY    78  73  84 S13G24    29.96S                  
FT PIERCE      FAIR      78  71  79 S10       29.96S                  
STUART         FAIR      77  68  73 S20       29.98S                  

STATION/POSITION SKY/WX   TEMP    WIND        PRES    WAVE   SWELL
                          AIR SEA DIR/SP/G            HT/PER HT/PER
                          (F)     (DEG/KT/KT) (MB)    (FT/S) (FT/S)
28.5N   80.2W              78     160/ 16/ 17 1015.2S   5/ 6   2/13
28.9N   78.5W              77 77  130/ 21/ 27 1016.9S   6/ 6   2/10
TRIDENT PIER               76 78  140/ 14/ 19 1015.6F
28.4N   80.5W                 77                N/A     4/ 6
27.5N   80.2W                 76                N/A     4/ 5

$$
FLZ050-056-061-142-242-148-248-149-249-151-251-155-255-
160-260-190500-
WEST CENTRAL FLORIDA
  
CITY           SKY/WX    TMP DP  RH WIND       PRES   REMARKS
CRYSTAL RIVER  CLOUDY    73  70  88 SE3       29.91S                  
INVERNESS      HVY RAIN  73  73 100 S7        29.93S                  
BROOKSVILLE    CLOUDY    73  69  87 SE7       29.91F                  
CLEARWATER AIR FAIR      75  70  83 S9        29.90F                  
ST PETE CLEARW FAIR      77  70  79 S15       29.91F                  
TAMPA INTL     FAIR      78  72  81 S15       29.91F                  
TAMPA EXEC     MOCLDY    77  70  78 S8        29.92F                  
PLANT CITY     CLOUDY    75  75 100 SE5       29.95S                  
MACDILL AFB    FAIR      78  72  83 S9        29.91F                  
PETER O KNIGHT CLOUDY    79  73  83 S13       29.92F                  
ST PETERSBURG    N/A    N/A N/A N/A MISG      29.90F                  
SARASOTA       FAIR      78  71  79 S13       29.91F                  
VENICE         FAIR      79  75  89 S9G15     29.93F                  

STATION/POSITION SKY/WX   TEMP    WIND        PRES    WAVE   SWELL
                          AIR SEA DIR/SP/G            HT/PER HT/PER
                          (F)     (DEG/KT/KT) (MB)    (FT/S) (FT/S)
27.3N   84.2W                 76                N/A     4/ 6
CLEARWATER BEACH           77 79  170/ 16/ 20 1012.5F
MIDDLE TAMPA BAY           78     200/ 13/ 16 1013.1F
VENICE                     79 78  160/ 15/ 17 1013.2F

$$
FLZ066-069-070-075>078-162-262-165-265-190500-
SOUTHWEST FLORIDA AND KEYS
  
CITY           SKY/WX    TMP DP  RH WIND       PRES   REMARKS
FT MYERS       FAIR      76  69  79 S8        29.94R                  
SOUTHWEST INTL FAIR      75  69  81 S9        29.95R                  
NAPLES         FAIR      78  74  87 SE10      29.94S                  
MARCO ISLAND   FAIR      78  73  84 SE12      29.95F                  
IMMOKALEE      FAIR      72  70  94 CALM      29.94S                  
MARATHON       FAIR      83  73  72 SE13G22   29.96R                  
KEY WEST NAS   MOCLDY    82  73  74 SE14      29.96R                  
KEY WEST INTL  CLOUDY    81  74  79 S14       29.96S                  

STATION/POSITION SKY/WX   TEMP    WIND        PRES    WAVE   SWELL
                          AIR SEA DIR/SP/G            HT/PER HT/PER
                          (F)     (DEG/KT/KT) (MB)    (FT/S) (FT/S)
NAPLES                     80 80  120/  5/ 11 1013.9S
DRY TORTUGAS               80     150/ 17/ 19 1013.4S
SAND KEY                   80                 1014.4R
SOMBRERO KEY               80                 1013.8R

$$
FLZ067-068-071>074-168-172>174-190500-
SOUTHEAST FLORIDA 
  
CITY           SKY/WX    TMP DP  RH WIND       PRES   REMARKS
W PALM BEACH   FAIR      76  70  82 SE12      29.98S                  
FT LAUDER-EXEC FAIR      78  73  84 SE6       29.96F                  
FT LAUDERDALE  FAIR      79  73  82 SE8       29.96S                  
POMPANO BEACH  FAIR      79  74  84 E9        29.96F                  
PEMBROKE PINES FAIR      78  72  81 SE7       29.98S                  
OPA LOCKA      FAIR      80  70  71 SE14G26   29.98R                  
MIAMI          FAIR      79  70  74 SE17G23   29.97S                  
WEST KENDALL   FAIR      80  70  71 SE10G21   29.97R                  
HOMESTEAD      FAIR      79  71  76 SE10      29.96S                  

STATION/POSITION SKY/WX   TEMP    WIND        PRES    WAVE   SWELL
                          AIR SEA DIR/SP/G            HT/PER HT/PER
                          (F)     (DEG/KT/KT) (MB)    (FT/S) (FT/S)
VIRGINIA KEY               80 82  130/ 11/ 15 1014.4R
LAKE WORTH                 77 80  140/ 12/ 14 1016.2F
SETTLEMENT POINT           78     140/ 14/ 20 1016.0S

$$